Weather History for KPUB - August, 2013

Change the Weather History Date:

Tuesday, August 6, 2013

  Actual Average Record
Temperature  
Mean Temperature 81 °F 75 °F  
Max Temperature 95 °F 91 °F 104 °F (1969)
Min Temperature 66 °F 59 °F 50 °F (1996)
Degree Days  
Heating Degree Days 0 0  
Month to date heating degree days 0 0  
Since 1 June heating degree days 17 26  
Since 1 July heating degree days 0 1  
Cooling Degree Days 16 10  
Month to date cooling degree days 81 60  
Year to date cooling degree days 820 605  
Since 1 June cooling degree days 747 571  
Growing Degree Days 30 (Base 50)    
Moisture  
Dew Point 51 °F    
Average Humidity 44    
Maximum Humidity 73    
Minimum Humidity 14    
Precipitation  
Precipitation T in 0.08 in 1.20 in (1929)
Month to date precipitation 0.57 0.48  
Year to date precipitation 4.45 8.39  
Snow  
Snow 0.00 in 0.00 in 0.00 in (2002)
Month to date snowfall 0.0 0.0  
Since 1 June snowfall T 0.0  
Since 1 July snowfall T 0.0  
Snow Depth 0.00 in    
Sea Level Pressure  
Sea Level Pressure 29.83 in    
Wind  
Wind Speed 11 mph (WNW)    
Max Wind Speed 39 mph    
Max Gust Speed 53 mph    
Visibility 10 miles    
Events Rain    
T = Trace of Precipitation, MM = Missing Value Source: NWS Daily Summary

Daily Weather History Graph

Daily Weather History Graph

Search for Another Location

Airport or City:

Trip Planner

Search our weather history database for the weather conditions in past years. The results will help you decide how hot, cold, wet, or windy it might be!

Date:

Astronomy

Aug. 06, 2013 Rise Set
Actual Time 6:04 AM MDT 8:02 PM MDT
Civil Twilight 5:36 AM MDT 8:30 PM MDT
Nautical Twilight 5:00 AM MDT 9:06 PM MDT
Astronomical Twilight 4:22 AM MDT 9:43 PM MDT
Moon 5:57 AM MDT (8/6) 7:39 PM MDT (8/6)
Length of Visible Light 14h 54m
Length of Day
13h 57m
Waning Crescent, 0% of the Moon is Illuminated
Aug 6
Waning Crescent
Aug 6
New
Aug 14
First Quarter
Aug 20
Full
Aug 28
Last Quarter

Hourly Weather History & Observations

Time (MDT) Temp. Dew Point Humidity Pressure Visibility Wind Dir Wind Speed Gust Speed Precip Events Conditions
12:53 AM 71.1 °F 55.9 °F 59% 29.88 in 10.0 mi SW 3.5 mph - N/A   Clear
1:53 AM 70.0 °F 55.9 °F 61% 29.85 in 10.0 mi West 4.6 mph - N/A   Clear
2:53 AM 68.0 °F 55.9 °F 65% 29.84 in 10.0 mi WSW 3.5 mph - N/A   Clear
3:53 AM 66.9 °F 57.9 °F 73% 29.81 in 10.0 mi Calm Calm - N/A   Clear
4:53 AM 68.0 °F 57.0 °F 68% 29.79 in 10.0 mi NNW 3.5 mph - N/A   Clear
5:53 AM 66.0 °F 57.9 °F 75% 29.80 in 10.0 mi South 3.5 mph - N/A   Clear
6:53 AM 69.1 °F 54.0 °F 58% 29.83 in 10.0 mi WSW 4.6 mph - N/A   Clear
7:53 AM 73.0 °F 52.0 °F 48% 29.83 in 10.0 mi West 12.7 mph - N/A   Clear
8:53 AM 77.0 °F 53.1 °F 43% 29.82 in 10.0 mi West 9.2 mph - N/A   Clear
9:53 AM 82.0 °F 51.1 °F 34% 29.81 in 10.0 mi WNW 6.9 mph - N/A   Clear
10:53 AM 88.0 °F 45.0 °F 22% 29.81 in 10.0 mi Variable 5.8 mph - N/A   Clear
11:53 AM 89.1 °F 43.0 °F 20% 29.81 in 10.0 mi NNE 8.1 mph - N/A   Clear
12:53 PM 91.0 °F 44.1 °F 20% 29.79 in 10.0 mi Variable 5.8 mph - N/A   Clear
1:53 PM 93.0 °F 39.9 °F 16% 29.76 in 10.0 mi ENE 12.7 mph 21.9 mph N/A   Clear
2:53 PM 93.0 °F 37.9 °F 15% 29.76 in 10.0 mi North 4.6 mph 17.3 mph N/A   Clear
3:53 PM 93.0 °F 39.0 °F 15% 29.75 in 10.0 mi East 13.8 mph 21.9 mph N/A   Partly Cloudy
4:53 PM 91.0 °F 39.0 °F 16% 29.75 in 10.0 mi NE 5.8 mph - N/A   Scattered Clouds
5:39 PM 78.8 °F 51.8 °F 39% 30.00 in 4.0 mi West 24.2 mph 36.8 mph 0.00 in Rain Light Rain
5:51 PM 73.4 °F 55.4 °F 53% 29.99 in 8.0 mi WNW 29.9 mph 39.1 mph 0.00 in Rain Light Rain
5:53 PM 73.9 °F 55.9 °F 53% 29.82 in 9.0 mi WNW 31.1 mph 41.4 mph 0.00 in Rain Light Rain
6:53 PM 73.0 °F 53.1 °F 49% 29.87 in 10.0 mi West 29.9 mph 36.8 mph 0.00 in   Mostly Cloudy
7:53 PM 72.0 °F 53.1 °F 51% 29.89 in 10.0 mi West 23.0 mph - 0.00 in   Overcast
8:53 PM 71.1 °F 54.0 °F 55% 29.86 in 10.0 mi WNW 28.8 mph 34.5 mph 0.00 in   Mostly Cloudy
9:53 PM 72.0 °F 53.1 °F 51% 29.84 in 10.0 mi WNW 16.1 mph 26.5 mph 0.00 in   Mostly Cloudy
10:53 PM 72.0 °F 53.1 °F 51% 29.87 in 10.0 mi WNW 12.7 mph - N/A   Overcast
11:53 PM 71.1 °F 52.0 °F 51% 29.87 in 10.0 mi WNW 11.5 mph - 0.00 in   Scattered Clouds